Temp
60 61 57 61 63 60 61 56 56 55 54 55 57 59 64 68 66 69 72 73 72 72 74 71 72 73 72 73 74 74 74 74 74 68 65 64 64 65 66 67 69 69 68 70
59 56 61 58 55 56 58 56 54 52 54 55 54 57 64 66 66 66 68 70 69 69 70 69 68 69 69 72 72 73 74 74 74 73 69 69 67 67 68 66 67 67 67 67
57 56 56 56 55 55 54 57 52 55 53 54 54 58 60 58 60 61 62 62 63 63 64 65 65 66 66 67 69 71 73 73 74 74 72 67 64 64 66 65 65 65 66 65
56 53 55 55 54 59 51 55 54 51 55 52 52 53 58 58 60 59 60 61 62 62 63 63 64 64 62 62 64 67 70 71 72 73 69 66 65 64 67 68 66 65 65 65
52 49 51 52 56 57 53 54 53 52 51 51 50 52 59 56 57 59 61 59 61 61 60 61 61 60 60 60 61 64 66 68 70 71 71 67 65 67 70 71 70 69 69 68
50 54 56 54 50 53 52 53 52 51 51 44 48 49 55 58 58 59 59 58 58 59 61 61 60 61 61 62 63 63 64 65 67 68 70 68 65 65 65 66 66 68 68 67
48 50 52 53 50 52 54 55 43 41 41 41 41 42 57 56 57 59 59 57 57 59 61 61 60 60 60 60 60 62 61 57 60 61 61 61 62 63 63 63 63 63 64 65
45 40 49 52 53 51 53 55 44 34 34 41 37 41 55 53 54 55 57 56 57 58 58 59 59 59 58 58 60 61 61 60 62 62 61 61 59 60 60 60 60 61 63 64
46 43 48 49 52 55 49 47 50 38 26 39 46 49 55 51 51 53 54 57 57 58 58 57 58 59 58 57 57 59 59 58 59 60 61 60 61 61 60 60 61 62 61 59
50 41 44 47 52 52 52 52 44 45 33 33 42 42 52 48 49 52 53 55 56 56 57 57 57 56 56 57 57 58 58 56 57 58 58 58 58 59 59 59 58 58 59 58
53 47 40 45 46 47 47 47 46 49 45 38 37 47 55 56 54 54 56 56 56 55 55 56 56 56 56 56 57 57 57 56 56 56 57 56 55 56 56 56 56 55 56 55
51 44 38 43 45 46 47 49 51 46 36 40 39 48 51 58 58 57 55 53 55 55 54 55 55 55 55 54 55 54 55 54 54 55 56 54 54 54 54 53 53 52 52 52
48 42 32 37 44 44 45 46 50 47 43 35 39 48 49 52 53 55 55 54 53 52 53 53 54 54 54 54 53 54 53 51 51 52 53 52 51 51 50 50 50 50 49 50
51 41 43 40 46 48 41 42 44 49 41 41 43 47 48 49 52 53 53 54 53 52 51 53 53 52 52 53 53 53 52 51 50 51 50 48 47 47 48 47 47 47 47 48
51 38 42 45 45 45 46 43 43 45 52 45 52 50 52 53 54 55 56 53 50 48 49 50 50 50 52 51 51 52 51 50 50 50 49 47 46 46 45 44 43 43 43 44
45 37 43 35 40 41 41 45 45 47 51 50 48 49 58 59 58 53 52 50 49 48 48 48 48 48 50 49 49 49 49 47 48 46 44 44 42 40 40 39 39 40 40 41
42 36 34 35 36 39 34 40 44 48 52 51 44 53 52 52 50 53 53 51 50 49 48 48 48 48 48 48 47 48 47 46 43 41 39 38 38 37 38 37 38 38 38 38
43 37 34 30 32 28 44 49 51 49 50 51 52 50 51 52 54 54 54 51 49 48 48 48 48 48 47 46 46 45 43 42 40 39 37 37 37 35 36 36 36 36 37 36
47 44 32 31 31 39 42 39 42 42 46 49 51 49 49 47 49 47 49 51 49 49 49 48 48 47 46 45 43 41 40 39 39 38 38 36 35 33 33 31 34 35 34 34
41 47 40 32 31 29 45 42 46 50 40 48 51 46 43 46 43 49 45 45 46 47 45 44 43 43 43 41 41 39 37 37 37 35 35 34 34 31 31 33 32 33 32 32
34 34 34 32 31 34 39 41 45 35 40 40 49 47 43 47 48 45 43 43 43 43 42 43 43 42 39 38 37 36 35 34 34 32 32 32 32 30 31 31 32 31 30 31
34 32 32 32 31 30 39 39 41 44 37 39 42 43 43 39 41 42 43 41 41 41 41 41 41 39 37 34 33 32 33 32 30 29 28 29 30 30 31 29 31 31 29 29
31 37 33 36 37 37 40 40 42 41 39 39 42 42 41 40 40 41 40 40 40 40 39 37 36 34 33 29 29 28 30 29 27 25 24 26 28 29 31 31 31 31 30 29
31 32 34 34 34 35 38 39 41 42 42 41 42 42 42 40 40 40 40 39 38 33 32 30 29 28 27 27 26 25 26 26 22 22 23 25 25 28 29 31 32 32 31 30
34 33 30 30 30 33 36 36 40 39 40 39 41 42 41 40 40 40 35 33 32 30 28 27 25 24 24 23 22 22 22 21 20 21 23 24 26 27 28 30 31 31 32 32
33 34 36 36 37 40 41 39 39 38 38 39 39 36 36 38 36 34 32 31 29 26 24 22 20 19 19 18 17 18 17 17 16 18 22 23 22 24 25 25 27 31 32 33
MSLP
1014.53 1014.23 1014.16 1014.34 1014.65 1014.78 1015.03 1015.62 1016.38 1017.49 1018.11 1018.00 1017.29 1016.56 1015.77 1015.91 1015.93 1015.79 1015.40 1015.71 1015.85 1016.14 1016.63 1017.26 1017.52 1017.66 1017.99 1018.31 1018.53 1018.77 1019.13 1019.64 1020.28 1020.96 1021.49 1021.91 1022.06 1022.47 1022.63 1022.73 1022.89 1023.11 1023.37 1023.51
1014.72 1014.18 1014.39 1015.20 1015.25 1015.30 1015.53 1015.87 1016.85 1017.88 1018.15 1018.17 1017.43 1016.43 1015.74 1015.59 1015.91 1016.03 1015.82 1015.94 1016.22 1016.29 1016.71 1017.04 1017.39 1017.65 1017.79 1017.74 1018.02 1018.28 1018.59 1019.13 1019.68 1020.10 1020.67 1021.10 1021.52 1021.87 1022.13 1022.42 1022.53 1022.67 1022.95 1023.13
1013.91 1014.90 1015.37 1015.40 1015.74 1015.65 1016.06 1016.01 1016.91 1017.33 1018.18 1018.29 1017.77 1016.07 1015.51 1015.96 1016.07 1016.44 1016.60 1016.92 1016.96 1017.04 1017.18 1017.39 1017.49 1017.68 1017.86 1017.96 1017.92 1018.03 1018.29 1018.75 1019.24 1019.73 1020.22 1020.83 1021.38 1021.78 1021.71 1021.94 1022.19 1022.31 1022.55 1022.80
1014.98 1016.08 1015.91 1015.75 1015.94 1015.78 1016.51 1016.70 1017.14 1017.62 1017.48 1017.98 1018.08 1016.18 1015.27 1015.72 1016.04 1016.57 1016.96 1017.33 1017.44 1017.67 1017.84 1017.92 1017.98 1017.93 1018.00 1018.14 1018.27 1018.33 1018.44 1018.69 1019.18 1019.58 1020.09 1020.46 1020.75 1020.90 1021.04 1021.31 1021.65 1021.85 1022.20 1022.28
1015.56 1016.03 1016.11 1016.22 1015.97 1016.36 1017.27 1017.28 1017.65 1017.99 1017.94 1018.02 1018.01 1017.40 1015.33 1015.81 1016.15 1016.55 1017.18 1017.79 1017.93 1018.21 1018.42 1018.48 1018.59 1018.61 1018.57 1018.42 1018.34 1018.41 1018.61 1018.80 1019.17 1019.46 1019.76 1020.21 1020.54 1020.78 1020.81 1020.87 1021.08 1021.23 1021.19 1021.49
1015.94 1016.16 1016.27 1016.60 1016.97 1016.87 1017.77 1017.68 1018.29 1018.44 1018.33 1018.26 1018.23 1017.85 1015.59 1015.52 1016.01 1016.88 1017.60 1018.06 1018.34 1018.70 1018.73 1018.99 1019.15 1019.16 1018.93 1018.71 1018.48 1018.58 1018.83 1019.17 1019.42 1019.68 1019.87 1020.20 1020.44 1020.69 1020.91 1021.02 1021.06 1021.02 1021.13 1021.15
1016.12 1016.57 1016.85 1016.77 1017.31 1018.05 1017.56 1017.05 1018.26 1018.77 1018.80 1018.65 1019.36 1018.66 1015.79 1016.22 1016.63 1017.34 1018.06 1018.43 1018.78 1019.05 1019.12 1019.35 1019.40 1019.48 1019.45 1019.34 1019.29 1019.22 1019.44 1019.87 1020.13 1020.36 1020.62 1020.75 1020.83 1020.95 1021.03 1021.15 1021.20 1021.33 1021.22 1021.07
1015.06 1016.98 1016.91 1016.79 1016.54 1016.59 1017.21 1016.62 1016.83 1017.76 1018.97 1019.04 1020.18 1018.02 1016.20 1016.90 1017.28 1017.96 1018.54 1019.07 1019.34 1019.44 1019.68 1019.84 1019.99 1020.17 1020.24 1020.27 1020.29 1020.12 1020.20 1020.36 1020.52 1020.62 1020.91 1021.18 1021.29 1021.36 1021.57 1021.60 1021.61 1021.64 1021.46 1021.37
1014.58 1016.17 1016.89 1017.06 1016.82 1016.68 1017.25 1017.13 1017.27 1018.02 1020.14 1019.29 1018.32 1017.21 1016.44 1017.07 1017.61 1018.34 1018.68 1019.09 1019.49 1019.78 1020.18 1020.39 1020.66 1020.52 1020.72 1020.91 1021.12 1020.97 1020.89 1021.12 1021.39 1021.43 1021.47 1021.63 1021.83 1021.80 1021.85 1021.91 1021.88 1021.82 1021.88 1021.78
1013.53 1015.61 1017.10 1017.23 1017.18 1017.26 1016.48 1016.53 1017.26 1017.46 1018.28 1018.32 1017.55 1017.03 1015.71 1016.66 1017.28 1018.27 1018.69 1019.14 1019.84 1020.21 1020.60 1020.84 1021.10 1021.30 1021.21 1021.49 1021.70 1021.70 1021.72 1021.70 1021.94 1021.95 1022.02 1022.04 1022.24 1022.21 1022.23 1022.27 1022.32 1022.17 1021.96 1021.87
1013.27 1014.23 1017.42 1017.75 1017.29 1016.64 1016.93 1016.64 1016.78 1016.60 1016.86 1016.80 1016.67 1015.55 1015.31 1015.45 1016.33 1017.52 1018.44 1019.09 1019.84 1020.38 1020.78 1021.10 1021.43 1021.82 1021.80 1022.02 1022.24 1022.29 1022.21 1022.22 1022.31 1022.41 1022.44 1022.53 1022.72 1022.88 1022.88 1022.80 1022.79 1022.73 1022.52 1022.20
1013.32 1014.79 1016.73 1017.16 1017.55 1017.31 1016.50 1016.04 1015.80 1015.70 1016.68 1016.92 1016.66 1015.62 1015.69 1015.78 1016.39 1017.50 1018.49 1019.43 1020.16 1020.81 1021.14 1021.38 1021.69 1021.92 1022.14 1022.43 1022.62 1022.91 1022.97 1022.93 1023.22 1023.24 1023.05 1023.05 1023.18 1023.19 1023.16 1023.21 1023.30 1023.21 1023.07 1022.74
1012.94 1014.30 1016.46 1017.61 1017.68 1017.36 1016.64 1016.20 1015.53 1015.49 1015.85 1016.01 1016.10 1015.39 1016.11 1016.42 1016.82 1017.64 1018.48 1019.84 1020.33 1021.05 1021.30 1021.75 1022.03 1022.41 1022.62 1022.88 1023.07 1023.39 1023.48 1023.64 1023.65 1023.83 1023.71 1023.74 1023.74 1023.69 1023.76 1023.70 1023.58 1023.39 1023.20 1022.87
1012.42 1013.80 1014.09 1014.18 1013.82 1014.65 1015.88 1015.39 1015.35 1015.05 1015.17 1014.68 1014.28 1014.72 1015.67 1016.28 1016.51 1017.40 1018.38 1019.35 1020.38 1021.00 1021.42 1021.80 1022.27 1022.81 1023.16 1023.34 1023.42 1023.68 1023.82 1023.97 1024.06 1024.10 1024.21 1024.23 1024.12 1024.20 1024.20 1024.07 1023.93 1023.69 1023.27 1022.90
1012.94 1014.07 1014.30 1014.33 1014.28 1014.37 1014.24 1014.48 1014.70 1014.50 1013.35 1013.71 1012.48 1013.56 1014.04 1014.96 1015.81 1016.55 1017.85 1019.27 1020.28 1021.05 1021.65 1022.08 1022.61 1023.11 1023.40 1023.58 1023.90 1024.07 1024.19 1024.33 1024.49 1024.55 1024.44 1024.58 1024.68 1024.59 1024.61 1024.55 1024.10 1023.80 1023.52 1023.14
1013.23 1013.76 1014.24 1015.06 1015.17 1014.90 1014.60 1014.31 1013.84 1013.23 1013.00 1013.17 1013.09 1013.30 1013.28 1014.45 1016.12 1017.13 1017.88 1018.93 1019.84 1020.80 1021.51 1022.13 1022.76 1023.28 1023.58 1023.95 1024.20 1024.36 1024.60 1024.67 1024.92 1024.99 1025.20 1025.13 1025.15 1025.20 1025.07 1024.87 1024.63 1024.23 1023.78 1023.39
1013.17 1013.75 1014.73 1015.34 1015.60 1015.38 1015.07 1012.72 1012.93 1012.73 1012.40 1012.27 1012.68 1012.37 1013.76 1014.91 1015.84 1016.27 1017.23 1018.44 1019.53 1020.56 1021.35 1022.14 1022.84 1023.41 1023.78 1024.08 1024.53 1024.69 1024.86 1025.04 1025.12 1025.48 1025.56 1025.52 1025.51 1025.36 1025.16 1024.96 1024.63 1024.10 1023.70 1023.33
1012.65 1013.58 1014.46 1015.38 1015.97 1015.15 1012.12 1012.13 1011.99 1012.03 1011.99 1012.18 1012.16 1012.94 1013.34 1013.70 1014.34 1016.13 1017.18 1018.17 1019.38 1020.39 1021.31 1022.28 1022.97 1023.54 1024.12 1024.58 1024.99 1025.05 1025.25 1025.28 1025.47 1025.48 1025.78 1025.81 1025.76 1025.63 1025.36 1025.02 1024.61 1024.14 1023.77 1023.35
1012.21 1012.83 1014.16 1014.91 1015.08 1013.78 1012.77 1012.75 1012.19 1011.97 1011.29 1011.88 1012.10 1013.10 1014.02 1014.79 1015.96 1017.11 1017.84 1018.57 1019.46 1020.49 1021.44 1022.41 1023.14 1023.78 1024.43 1024.85 1025.18 1025.22 1025.48 1025.55 1025.73 1025.84 1025.87 1025.86 1025.83 1025.67 1025.40 1025.06 1024.44 1023.90 1023.49 1023.01
1012.97 1012.38 1013.05 1014.44 1014.09 1013.27 1011.24 1011.84 1012.00 1012.50 1011.89 1011.28 1012.28 1013.34 1014.29 1015.47 1016.24 1016.34 1017.93 1018.94 1020.17 1021.16 1022.04 1022.84 1023.78 1024.47 1024.85 1025.25 1025.36 1025.31 1025.56 1025.66 1025.87 1026.01 1025.89 1025.82 1025.68 1025.56 1025.21 1024.85 1024.49 1023.97 1023.49 1022.66
1013.43 1013.37 1013.29 1013.84 1013.65 1012.82 1012.11 1012.68 1012.97 1013.12 1011.44 1011.30 1011.86 1012.62 1013.98 1014.71 1015.27 1016.40 1018.24 1019.87 1020.85 1021.79 1022.69 1023.47 1024.07 1024.61 1025.21 1025.52 1025.44 1025.66 1026.00 1026.23 1026.49 1026.39 1026.16 1025.81 1025.49 1025.34 1024.93 1024.45 1024.12 1023.69 1023.31 1022.55
1012.30 1013.01 1013.34 1013.82 1013.74 1012.84 1012.04 1013.49 1013.14 1012.09 1012.53 1012.72 1013.12 1013.69 1014.91 1015.82 1016.51 1017.49 1019.07 1020.41 1021.61 1022.48 1023.19 1023.80 1024.31 1025.05 1025.60 1025.90 1026.14 1026.48 1026.61 1026.89 1026.87 1026.75 1026.36 1025.86 1025.31 1024.91 1024.47 1024.06 1023.43 1023.06 1022.84 1022.07
1013.12 1011.96 1012.39 1013.06 1012.22 1011.94 1012.30 1012.76 1012.46 1012.64 1012.86 1013.50 1013.83 1014.55 1015.39 1016.49 1017.39 1018.54 1019.82 1021.04 1022.17 1023.04 1023.80 1024.55 1025.15 1025.79 1026.47 1026.91 1027.06 1027.08 1026.99 1027.01 1026.79 1026.59 1026.23 1025.72 1025.16 1024.63 1024.08 1023.57 1022.95 1022.53 1022.34 1021.67
1013.37 1013.10 1012.79 1013.10 1013.10 1013.06 1013.26 1013.37 1013.25 1013.27 1013.49 1014.01 1014.42 1015.21 1016.00 1017.00 1018.23 1019.31 1020.49 1021.56 1022.65 1023.70 1024.65 1025.50 1026.04 1026.56 1027.08 1027.36 1027.48 1027.53 1027.33 1027.19 1026.97 1026.63 1026.15 1025.70 1025.02 1024.14 1023.52 1023.00 1022.53 1021.89 1021.37 1020.75
1013.38 1013.33 1013.20 1013.48 1013.81 1013.97 1013.85 1013.94 1013.80 1014.26 1014.45 1014.87 1015.70 1016.21 1016.84 1017.77 1019.12 1020.07 1021.24 1022.35 1023.32 1024.27 1025.18 1026.03 1026.72 1027.12 1027.49 1027.71 1027.61 1027.62 1027.72 1027.54 1027.24 1026.88 1026.30 1025.63 1024.79 1023.88 1023.12 1022.55 1021.96 1021.27 1020.38 1020.08
1013.01 1012.71 1012.53 1012.09 1012.05 1012.02 1012.16 1013.15 1013.92 1014.44 1014.99 1015.39 1015.99 1017.43 1018.25 1018.71 1019.76 1020.88 1022.08 1023.14 1024.25 1025.24 1025.99 1026.59 1027.31 1027.88 1028.12 1028.25 1028.45 1028.28 1028.04 1027.65 1027.38 1026.86 1026.20 1025.49 1024.75 1023.91 1023.25 1022.45 1021.02 1020.43 1019.54 1018.81
Wind_Speed
2 9 14 15 10 3 10 7 7 2 1 3 6 11 11 7 7 10 9 9 7 8 4 5 6 8 12 15 15 16 16 15 12 9 8 7 7 6 6 7 11 11 10 13
7 13 8 11 7 8 9 9 5 3 2 3 1 11 11 7 5 7 8 7 7 4 6 5 4 5 9 13 15 16 16 15 14 11 9 6 6 6 7 6 9 10 10 11
14 3 12 8 8 10 3 9 6 4 4 2 4 7 4 2 1 2 3 4 2 3 4 6 5 3 3 8 11 13 14 14 13 13 8 4 2 0 5 6 7 8 10 9
4 4 12 12 8 7 5 4 8 11 7 4 2 3 3 2 3 3 2 4 4 4 4 5 6 6 5 2 5 9 10 12 11 12 10 11 8 8 7 8 6 5 8 10
7 11 11 9 8 6 4 6 7 4 5 2 3 5 3 1 5 6 4 3 4 4 4 6 7 6 7 6 4 5 7 8 9 10 11 9 10 8 7 6 8 9 8 11
4 2 2 3 6 1 14 10 7 4 2 3 2 4 4 4 4 5 4 4 4 4 6 7 7 7 9 9 9 8 7 6 5 7 9 9 9 7 6 6 6 6 5 5
3 2 1 3 12 5 3 14 4 3 4 4 2 4 6 3 3 1 2 5 6 6 8 9 11 11 12 13 12 11 12 10 7 6 4 2 1 3 5 5 4 5 5 5
10 6 10 6 5 11 15 7 7 8 6 4 1 8 4 1 3 3 5 7 8 10 9 10 11 11 11 12 13 13 13 12 10 8 7 5 3 1 1 2 3 4 4 5
10 4 2 1 2 5 8 7 4 9 2 2 4 5 8 2 5 6 10 11 11 11 10 10 9 11 11 12 13 12 13 12 11 10 8 8 7 6 5 4 3 3 4 5
8 7 2 2 1 4 4 11 4 1 6 5 5 5 5 8 11 11 13 13 11 10 10 10 10 10 10 11 11 12 12 12 11 10 9 8 9 8 7 7 7 7 7 8
6 4 2 2 7 11 5 6 2 4 2 5 5 6 3 12 15 17 15 13 12 11 11 10 10 9 11 11 10 11 11 11 10 9 9 9 8 8 8 7 7 7 6 7
2 6 6 7 1 2 2 5 9 6 6 0 1 3 1 8 15 16 14 11 11 10 10 10 10 10 10 10 10 10 10 10 9 8 8 9 8 8 8 8 8 8 8 8
9 4 6 2 3 1 6 5 5 3 3 8 6 4 3 8 14 13 14 11 11 11 10 9 9 8 9 9 9 8 9 8 7 7 8 8 9 9 9 9 9 8 9 9
8 2 7 13 13 9 10 10 9 11 5 6 9 6 9 12 16 15 14 13 12 10 10 9 9 8 8 7 8 8 8 7 6 7 8 9 9 9 9 8 9 9 9 10
6 11 6 3 2 7 8 14 16 17 21 13 17 14 19 21 22 20 15 14 13 12 11 9 9 8 7 7 6 6 6 6 6 8 9 9 9 9 9 10 10 10 9 10
2 5 8 4 3 3 4 12 20 23 20 15 6 13 7 19 13 14 16 17 16 14 12 11 10 9 7 6 5 5 6 6 6 7 7 7 8 8 8 8 9 9 9 9
9 7 5 7 5 5 4 21 20 17 17 19 16 14 8 15 18 19 18 18 17 15 14 12 10 8 6 5 3 5 5 5 5 5 5 5 6 7 8 8 9 9 10 10
11 8 2 5 3 8 8 2 18 22 15 18 12 10 17 20 23 12 11 16 15 15 14 11 9 8 5 4 4 3 4 4 4 5 4 5 7 7 8 9 9 9 9 9
4 9 5 7 10 5 6 7 11 14 18 16 21 10 9 9 12 7 8 10 13 13 11 9 8 7 6 4 3 2 3 3 4 6 6 7 6 7 8 8 9 10 9 9
1 6 7 5 9 14 9 7 7 6 16 14 15 15 15 16 12 8 12 11 12 11 9 9 7 6 6 3 2 2 5 5 8 9 9 9 8 6 8 9 10 7 9 10
7 3 12 8 5 8 5 5 3 12 8 7 20 17 19 13 2 15 14 10 10 9 9 8 6 6 5 4 4 6 6 6 7 7 8 8 8 8 9 9 8 9 10 10
13 12 7 4 8 17 7 6 11 2 2 5 6 8 11 11 13 17 14 13 12 10 8 5 5 6 6 6 5 4 4 5 6 6 8 8 8 8 8 10 10 10 10 11
5 4 8 9 5 1 5 2 2 3 4 5 8 9 15 17 17 15 14 13 9 9 7 4 5 5 5 4 3 4 5 7 8 8 9 9 9 9 9 10 11 10 10 10
2 2 3 3 2 0 2 1 1 2 3 7 10 16 15 16 15 14 11 10 9 6 7 4 5 3 2 3 4 4 7 7 7 9 9 9 9 10 9 8 8 9 10 10
0 8 6 2 1 1 4 6 4 4 7 11 10 10 14 16 12 11 8 7 7 7 5 4 4 2 4 6 7 7 8 7 8 8 9 11 9 10 11 10 10 10 11 12
6 7 6 5 11 4 9 10 9 10 10 12 13 8 6 8 10 7 8 6 7 7 4 4 3 3 5 6 7 7 6 7 8 11 9 9 10 10 10 10 12 17 23 25
Wind_Direction
122 187 190 178 193 144 156 137 157 126 70 227 234 268 262 264 270 251 252 263 263 269 302 283 253 225 221 221 218 217 213 213 203 205 193 203 207 206 209 212 213 214 215 228
159 205 172 116 116 125 144 149 142 101 68 236 275 266 264 267 252 283 291 280 287 290 309 330 313 247 225 221 220 216 216 211 208 204 209 207 201 215 217 211 214 216 220 221
181 142 146 141 142 134 131 172 166 144 138 83 294 266 238 108 216 313 336 301 328 345 356 360 17 16 312 233 222 220 216 214 211 214 208 188 44 5 209 214 217 217 217 223
147 134 162 149 165 173 171 157 133 135 159 207 343 262 264 141 132 105 81 65 64 43 43 42 34 41 35 353 233 222 217 215 213 207 207 206 211 221 226 235 217 207 208 222
151 166 156 171 177 177 141 127 117 124 107 174 184 262 235 163 166 140 106 74 69 49 39 48 42 40 39 36 69 173 188 199 201 208 213 217 223 241 249 247 242 241 235 240
91 47 158 126 74 48 142 109 72 72 87 237 139 253 231 183 169 152 120 98 68 68 80 71 68 65 61 63 72 89 115 124 167 199 212 221 228 235 245 248 254 260 258 250
116 116 93 147 95 136 192 156 134 178 191 233 29 213 272 156 124 95 127 104 99 101 93 85 77 73 67 66 72 80 92 86 88 98 92 69 323 296 282 305 302 305 287 269
160 191 182 167 173 173 183 198 167 180 189 156 100 220 242 96 357 179 114 115 119 109 104 92 84 78 71 68 69 75 76 78 80 87 83 76 69 58 345 299 291 287 293 306
168 152 61 48 142 177 173 201 94 105 61 173 203 247 258 117 138 150 138 138 130 119 108 98 87 80 75 71 67 70 76 72 65 68 73 71 62 56 46 30 10 352 331 330
186 127 20 89 149 50 222 140 129 87 152 211 199 271 224 181 170 161 153 146 134 123 113 103 93 91 87 81 79 76 74 75 71 70 66 64 57 55 50 41 26 11 359 347
144 93 112 151 216 175 144 179 114 121 201 186 172 230 216 186 168 164 156 147 142 133 123 115 105 96 87 83 76 73 70 69 67 68 69 67 58 46 43 40 28 11 354 353
175 109 140 186 6 321 339 190 181 190 188 5 13 240 111 185 163 159 153 148 141 132 124 114 106 96 89 81 72 63 59 61 52 49 60 58 51 42 39 30 15 4 355 350
183 151 110 126 226 159 224 178 208 108 93 188 172 209 43 150 157 163 159 160 152 140 126 119 111 103 96 89 80 72 62 57 50 42 48 48 39 31 23 15 7 1 353 347
119 102 194 196 203 138 195 189 195 199 197 173 232 155 172 180 176 177 174 166 161 153 146 132 122 113 100 87 78 70 63 51 43 43 43 40 33 22 13 6 1 358 353 348
158 193 194 203 166 172 207 183 181 202 221 198 230 214 185 188 186 184 170 163 160 161 155 144 134 123 108 96 81 72 67 52 32 33 33 29 21 14 4 358 355 350 347 344
168 171 169 180 166 184 194 198 194 208 216 241 235 222 200 186 174 171 175 171 171 167 157 147 138 130 120 106 76 56 48 44 32 41 34 17 10 358 354 346 339 333 330 331
157 136 142 210 127 121 287 213 197 216 214 216 213 215 163 169 188 189 180 179 172 163 156 150 141 133 115 99 83 64 49 37 43 33 20 5 354 344 342 333 329 330 326 322
166 134 96 120 134 208 255 165 196 204 205 209 229 180 179 186 195 174 180 169 162 157 153 146 141 137 124 104 81 54 56 46 39 26 359 348 344 334 330 328 322 320 318 315
217 164 143 164 210 319 233 207 180 181 228 206 215 170 167 131 140 186 166 163 154 153 148 141 134 126 128 110 55 46 73 39 47 16 352 342 335 323 323 314 316 316 311 309
173 207 177 166 194 212 247 181 156 115 256 190 192 168 159 153 182 185 157 136 134 135 137 136 135 131 125 85 23 52 44 27 20 359 339 330 325 311 310 309 306 300 297 292
184 183 205 192 209 270 177 142 174 172 244 178 186 170 163 176 213 128 128 117 123 129 137 137 129 112 101 74 35 36 15 16 347 329 320 313 312 306 302 302 300 300 301 295
174 172 190 163 197 246 140 108 191 142 114 137 120 139 139 114 123 125 125 129 134 137 138 135 122 98 79 53 36 3 350 346 320 313 306 306 307 307 306 305 305 304 303 298
193 188 170 207 215 92 174 8 112 147 142 159 139 143 134 131 130 133 133 138 140 138 131 107 116 105 84 56 30 333 340 334 329 326 312 308 306 298 294 290 295 297 292 292
243 235 132 140 200 20 162 35 150 145 127 125 130 137 137 133 138 135 137 138 135 127 122 115 97 61 30 14 355 342 331 331 324 307 300 301 296 298 292 287 285 285 289 287
199 150 149 291 299 158 271 236 159 125 115 111 114 130 135 134 137 138 132 127 123 119 105 92 86 43 347 343 334 337 330 323 311 300 297 298 295 297 300 286 283 277 273 275
189 165 189 206 183 175 198 172 157 147 155 145 132 123 118 135 140 125 123 120 131 131 124 97 52 348 331 331 312 309 312 320 314 307 305 307 303 297 293 290 290 275 280 283